K9BM Weather Reports


Display with metric or nautical units.
time (UTC)temp
F
wind
direction
speed
MPH
gust
MPH
rain 1hr
in
rain 24hr
in
rain mn
in
humidity
%
barometer
mb
20260903220004 79 195 12.0 22.0 0.00 0.00 0.00 20 1001.3
20260903214504 77 271 6.0 13.0 0.00 0.00 0.00 24 1001.4
20260903214005 76 330 2.0 12.0 0.00 0.00 0.00 25 1001.2
20260903213505 76 271 4.0 12.0 0.00 0.00 0.00 26 1001.4
20260903213005 75 245 2.0 12.0 0.00 0.00 0.00 26 1001.3
20260903211505 75 262 8.0 13.0 0.00 0.00 0.00 26 1001.4
20260903211005 76 269 7.0 13.0 0.00 0.00 0.00 26 1001.3
20260903210005 77 283 10.0 18.0 0.00 0.00 0.00 24 1001.3
20260903205504 77 246 6.0 18.0 0.00 0.00 0.00 24 1001.3
20260903205005 75 207 3.0 12.0 0.00 0.00 0.00 26 1001.3
20260903204505 75 204 5.0 12.0 0.00 0.00 0.00 26 1001.4
20260903204005 74 253 8.0 12.0 0.00 0.00 0.00 27 1001.5
20260903203504 74 256 6.0 10.0 0.00 0.00 0.00 27 1001.6
20260903203005 73 275 6.0 10.0 0.00 0.00 0.00 27 1001.5
20260903202005 74 282 9.0 12.0 0.00 0.00 0.00 27 1001.5
20260903201504 74 252 5.0 12.0 0.00 0.00 0.00 26 1001.5
20260903201004 74 241 7.0 17.0 0.00 0.00 0.00 26 1001.5
20260903200005 74 253 10.0 15.0 0.00 0.00 0.00 27 1001.5
20260903195504 74 271 4.0 14.0 0.00 0.00 0.00 26 1001.5
20260903195005 74 237 8.0 14.0 0.00 0.00 0.00 25 1001.6
20260903194505 74 226 7.0 12.0 0.00 0.00 0.00 25 1001.4
20260903194005 75 209 2.0 9.0 0.00 0.00 0.00 25 1001.6
20260903193505 75 208 1.0 15.0 0.00 0.00 0.00 25 1001.6
20260903193004 74 212 5.0 15.0 0.00 0.00 0.00 25 1001.6
20260903192505 74 293 10.0 15.0 0.00 0.00 0.00 26 1001.7
20260903192005 74 302 7.0 12.0 0.00 0.00 0.00 26 1001.8
20260903191005 73 272 7.0 14.0 0.00 0.00 0.00 28 1001.9
20260903190005 72 310 3.0 15.0 0.00 0.00 0.00 28 1001.9
20260903185504 72 280 10.0 15.0 0.00 0.00 0.00 28 1001.9
20260903185005 73 218 2.0 10.0 0.00 0.00 0.00 26 1002.0
20260903184005 73 165 5.0 16.0 0.00 0.00 0.00 26 1001.9
20260903183504 74 166 5.0 18.0 0.00 0.00 0.00 26 1002.1
20260903182505 72 311 8.0 15.0 0.00 0.00 0.00 28 1002.0
20260903182005 72 269 10.0 15.0 0.00 0.00 0.00 28 1002.1
20260903181004 71 283 9.0 15.0 0.00 0.00 0.00 28 1002.1
20260903180004 71 295 6.0 12.0 0.00 0.00 0.00 29 1002.2
20260903175505 71 274 6.0 13.0 0.00 0.00 0.00 28 1002.2
20260903175005 70 264 3.0 16.0 0.00 0.00 0.00 29 1002.2
20260903174504 70 277 6.0 16.0 0.00 0.00 0.00 29 1002.2
20260903174005 69 299 9.0 14.0 0.00 0.00 0.00 30 1002.2
20260903173504 68 304 8.0 14.0 0.00 0.00 0.00 30 1002.3
20260903173005 68 299 9.0 13.0 0.00 0.00 0.00 30 1002.4
20260903172504 68 302 10.0 14.0 0.00 0.00 0.00 29 1002.4
20260903172005 69 298 9.0 20.0 0.00 0.00 0.00 29 1002.5
20260903171505 70 284 8.0 20.0 0.00 0.00 0.00 29 1002.5
20260903171005 69 310 9.0 16.0 0.00 0.00 0.00 29 1002.5
20260903170004 69 267 9.0 12.0 0.00 0.00 0.00 30 1002.5
20260903165505 68 291 5.0 13.0 0.00 0.00 0.00 30 1002.5
20260903165004 68 288 9.0 15.0 0.00 0.00 0.00 30 1002.4
20260903164504 68 298 9.0 16.0 0.00 0.00 0.00 30 1002.4
20260903164005 68 294 9.0 16.0 0.00 0.00 0.00 30 1002.5
20260903163505 68 308 9.0 13.0 0.00 0.00 0.00 31 1002.5
20260903163005 68 275 8.0 15.0 0.00 0.00 0.00 30 1002.5
20260903162505 68 284 9.0 15.0 0.00 0.00 0.00 31 1002.4
20260903162005 68 289 7.0 12.0 0.00 0.00 0.00 31 1002.5
20260903161505 67 283 6.0 13.0 0.00 0.00 0.00 30 1002.5
20260903161005 67 278 7.0 15.0 0.00 0.00 0.00 31 1002.5
20260903160005 67 290 8.0 15.0 0.00 0.00 0.00 31 1002.5
20260903155505 67 292 9.0 15.0 0.00 0.00 0.00 31 1002.6
20260903155005 67 270 4.0 15.0 0.00 0.00 0.00 30 1002.6
20260903154504 67 235 4.0 15.0 0.00 0.00 0.00 31 1002.6
20260903153005 66 241 2.0 7.0 0.00 0.00 0.00 33 1002.8
20260903152504 65 240 2.0 9.0 0.00 0.00 0.00 33 1002.8
20260903152005 65 277 4.0 9.0 0.00 0.00 0.00 33 1002.9
20260903151504 65 289 3.0 9.0 0.00 0.00 0.00 34 1003.0
20260903151004 65 295 5.0 12.0 0.00 0.00 0.00 34 1003.1
20260903150004 65 265 9.0 12.0 0.00 0.00 0.00 31 1003.0
20260903145505 65 250 6.0 9.0 0.00 0.00 0.00 30 1003.0
20260903145005 65 226 5.0 9.0 0.00 0.00 0.00 31 1003.1
20260903144504 65 233 6.0 9.0 0.00 0.00 0.00 31 1003.0
20260903144004 65 233 5.0 9.0 0.00 0.00 0.00 31 1003.0
20260903143504 64 219 6.0 12.0 0.00 0.00 0.00 31 1003.0
20260903143005 64 233 6.0 12.0 0.00 0.00 0.00 31 1002.9
20260903142505 64 222 5.0 12.0 0.00 0.00 0.00 31 1002.8
20260903141005 63 207 6.0 9.0 0.00 0.00 0.00 32 1002.8
20260903135509 61 234 3.0 5.0 0.00 0.00 0.00 35 1002.7
20260903135005 61 241 3.0 5.0 0.00 0.00 0.00 34 1002.7
20260903134505 61 238 2.0 3.0 0.00 0.00 0.00 33 1002.6
20260903134005 61 235 0.0 0.0 0.00 0.00 0.00 33 1002.6
20260903133505 61 235 0.0 2.0 0.00 0.00 0.00 32 1002.7
20260903132505 60 235 1.0 3.0 0.00 0.00 0.00 33 1002.4
20260903131505 61 235 3.0 6.0 0.00 0.00 0.00 32 1002.3
20260903131005 61 261 2.0 6.0 0.00 0.00 0.00 32 1002.2
20260903130005 62 282 5.0 12.0 0.00 0.00 0.00 31 1002.0
20260903125505 62 254 6.0 12.0 0.00 0.00 0.00 31 1001.9
20260903125005 63 245 9.0 12.0 0.00 0.00 0.00 32 1001.9
20260903124505 63 237 5.0 9.0 0.00 0.00 0.00 31 1001.7
20260903124004 63 231 5.0 9.0 0.00 0.00 0.00 31 1001.7
20260903123504 63 228 5.0 9.0 0.00 0.00 0.00 30 1001.6
20260903123004 63 225 5.0 9.0 0.00 0.00 0.00 30 1001.6
20260903122504 63 230 5.0 10.0 0.00 0.00 0.00 30 1001.5
20260903122004 63 225 6.0 12.0 0.00 0.00 0.00 29 1001.4
20260903121505 64 222 6.0 12.0 0.00 0.00 0.00 29 1001.5
20260903121005 64 212 5.0 10.0 0.00 0.00 0.00 28 1001.4
20260903120004 64 202 5.0 12.0 0.00 0.00 0.00 27 1001.5
20260903115504 64 216 5.0 12.0 0.00 0.00 0.00 27 1001.5
20260903115004 64 233 7.0 12.0 0.00 0.00 0.00 27 1001.4
20260903114504 64 241 7.0 14.0 0.00 0.00 0.00 27 1001.6
20260903113505 64 233 6.0 12.0 0.00 0.00 0.00 27 1001.5
20260903113005 64 234 5.0 13.0 0.00 0.00 0.00 27 1001.4
20260903112505 64 230 6.0 13.0 0.00 0.00 0.00 26 1001.4
20260903112005 63 236 7.0 12.0 0.00 0.00 0.00 26 1001.4
20260903111505 64 236 7.0 12.0 0.00 0.00 0.00 25 1001.4
20260903111005 63 230 4.0 21.0 0.00 0.00 0.00 25 1001.3
20260903110005 63 165 7.0 21.0 0.00 0.00 0.00 25 1001.2
20260903105005 62 181 1.0 5.0 0.00 0.00 0.00 25 1001.3
20260903104005 62 245 0.0 3.0 0.00 0.00 0.00 25 1001.4
20260903103504 62 245 2.0 3.0 0.00 0.00 0.00 25 1001.6
20260903103005 62 245 1.0 3.0 0.00 0.00 0.00 25 1001.5
20260903102504 61 245 2.0 3.0 0.00 0.00 0.00 25 1001.5
20260903101504 62 245 2.0 6.0 0.00 0.00 0.00 27 1001.5
20260903101004 62 241 4.0 9.0 0.00 0.00 0.00 26 1001.5
20260903100004 61 201 6.0 12.0 0.00 0.00 0.00 26 1001.4
20260903095504 61 176 7.0 12.0 0.00 0.00 0.00 26 1001.4
20260903095004 60 186 6.0 7.0 0.00 0.00 0.00 27 1001.4
20260903094504 60 182 6.0 7.0 0.00 0.00 0.00 28 1001.4
20260903094004 60 187 5.0 7.0 0.00 0.00 0.00 27 1001.4
20260903093505 60 201 5.0 7.0 0.00 0.00 0.00 27 1001.5
20260903093005 59 186 5.0 6.0 0.00 0.00 0.00 28 1001.4
20260903092505 59 183 5.0 8.0 0.00 0.00 0.00 28 1001.5
20260903092005 59 182 5.0 8.0 0.00 0.00 0.00 27 1001.4
20260903091005 59 201 4.0 6.0 0.00 0.00 0.00 28 1001.4
20260903090004 60 221 2.0 3.0 0.00 0.00 0.00 28 1001.3
20260903085504 60 233 3.0 5.0 0.00 0.00 0.00 28 1001.2
20260903085005 59 234 3.0 7.0 0.00 0.00 0.00 29 1001.1
20260903084505 59 233 4.0 8.0 0.00 0.00 0.00 29 1001.1
20260903084004 60 242 5.0 8.0 0.00 0.00 0.00 27 1001.1
20260903083504 61 221 4.0 6.0 0.00 0.00 0.00 26 1001.0
20260903083004 60 203 2.0 3.0 0.00 0.00 0.00 26 1000.9
20260903082504 60 202 2.0 3.0 0.00 0.00 0.00 26 1000.9
20260903082004 60 201 3.0 7.0 0.00 0.00 0.00 26 1001.0
20260903081505 60 201 2.0 7.0 0.00 0.00 0.00 26 1001.1
20260903081004 60 202 2.0 7.0 0.00 0.00 0.00 26 1001.1
20260903080004 61 185 2.0 9.0 0.00 0.00 0.00 26 1001.2
20260903075504 62 187 7.0 9.0 0.00 0.00 0.00 25 1001.2
20260903075004 63 205 4.0 6.0 0.00 0.00 0.00 24 1001.2
20260903074504 63 236 3.0 5.0 0.00 0.00 0.00 23 1001.2
20260903074005 63 276 0.0 0.0 0.00 0.00 0.00 23 1001.2
20260903073505 63 305 0.0 0.0 0.00 0.00 0.00 23 1001.2
20260903073005 63 310 0.0 0.0 0.00 0.00 0.00 22 1001.2
20260903072504 63 310 0.0 0.0 0.00 0.00 0.00 23 1001.1
20260903072004 63 310 0.0 0.0 0.00 0.00 0.00 22 1001.1
20260903071505 63 312 0.0 0.0 0.00 0.00 0.00 22 1001.2
20260903071005 64 312 0.0 0.0 0.00 0.00 0.00 22 1001.1
20260903070004 64 312 0.0 0.0 0.00 0.00 0.00 22 1001.1
20260903065504 64 312 0.0 0.0 0.00 0.00 0.00 23 1001.1
20260903065005 64 312 0.0 0.0 0.00 0.00 0.00 22 1001.1
20260903064505 64 312 0.0 0.0 0.00 0.00 0.00 22 1001.0
20260903064004 64 312 0.0 0.0 0.00 0.00 0.00 22 1001.0
20260903063504 64 312 0.0 0.0 0.00 0.00 0.00 22 1000.9
20260903063004 64 313 0.0 0.0 0.00 0.00 0.00 23 1000.8
20260903062005 65 339 0.0 1.0 0.00 0.00 0.00 23 1000.8
20260903061504 65 340 0.0 2.0 0.00 0.00 0.00 22 1000.7
20260903061005 65 340 0.0 3.0 0.00 0.00 0.00 21 1000.8
20260903060004 65 340 2.0 5.0 0.00 0.00 0.00 21 1000.9
20260903055504 65 241 0.0 0.0 0.00 0.00 0.00 22 1000.9
20260903055005 65 241 0.0 1.0 0.00 0.00 0.00 22 1001.1
20260903054504 65 241 0.0 2.0 0.00 0.00 0.00 21 1001.0
20260903054004 65 245 0.0 2.0 0.00 0.00 0.00 21 1001.0
20260903053504 65 245 0.0 2.0 0.00 0.00 0.00 21 1001.0
20260903053005 65 245 0.0 3.0 0.00 0.00 0.00 21 1001.0
20260903052004 64 245 2.0 3.0 0.00 0.00 0.00 22 1001.0
20260903051504 65 245 0.0 3.0 0.00 0.00 0.00 22 1001.1
20260903051004 66 244 0.0 3.0 0.00 0.00 0.00 22 1001.1
20260903050004 65 245 3.0 5.0 0.00 0.00 0.00 21 1001.0
20260903045504 66 242 3.0 7.0 0.00 0.00 0.00 21 1001.1
20260903045005 67 241 4.0 8.0 0.00 0.00 0.00 20 1001.0
20260903044004 66 246 5.0 8.0 0.00 0.00 0.00 21 1001.0
20260903043504 66 241 5.0 8.0 0.00 0.00 0.00 21 1001.1
20260903043004 66 242 5.0 9.0 0.00 0.00 0.00 21 1001.0
20260903042005 65 263 5.0 9.0 0.00 0.00 0.00 21 1001.1
20260903041504 65 269 6.0 9.0 0.00 0.00 0.00 21 1001.0
20260903041004 66 244 4.0 7.0 0.00 0.00 0.00 22 1001.0
20260903040004 66 239 4.0 6.0 0.00 0.00 0.00 21 1000.9
20260903035504 65 225 5.0 5.0 0.00 0.00 0.00 21 1001.0
20260903035004 64 201 3.0 5.0 0.00 0.00 0.00 22 1001.0
20260903034504 65 201 2.0 7.0 0.00 0.00 0.00 22 1000.9
20260903034005 66 199 4.0 7.0 0.00 0.00 0.00 21 1000.8
20260903033505 66 200 3.0 6.0 0.00 0.00 0.00 20 1000.7
20260903033004 66 200 3.0 7.0 0.00 0.00 0.00 20 1000.6
20260903032504 65 201 3.0 8.0 0.00 0.00 0.00 21 1000.6
20260903032004 66 182 7.0 10.0 0.00 0.00 0.00 21 1000.6
20260903031504 66 179 8.0 10.0 0.00 0.00 0.00 21 1000.5
20260903031004 66 178 7.0 8.0 0.00 0.00 0.00 20 1000.6
20260903025004 68 197 6.0 10.0 0.00 0.00 0.00 19 1000.6
20260903024504 69 199 6.0 10.0 0.00 0.00 0.00 19 1000.6
20260903023505 70 193 7.0 10.0 0.00 0.00 0.00 18 1000.6
20260903022004 71 208 7.0 12.0 0.00 0.00 0.00 17 1000.4
20260903021504 72 195 8.0 12.0 0.00 0.00 0.00 17 1000.3
20260903020004 73 200 11.0 20.0 0.00 0.00 0.00 15 1000.1
20260903015505 74 213 12.0 24.0 0.00 0.00 0.00 15 1000.1
20260903014504 74 208 14.0 22.0 0.00 0.00 0.00 15 999.9
20260903014004 74 197 12.0 20.0 0.00 0.00 0.00 16 999.9
20260903012504 76 193 18.0 30.0 0.00 0.00 0.00 14 999.9
20260903012004 76 196 11.0 25.0 0.00 0.00 0.00 14 999.9
20260903011504 76 197 10.0 24.0 0.00 0.00 0.00 13 999.8
20260903011004 77 196 14.0 26.0 0.00 0.00 0.00 13 999.9
20260903010004 77 192 17.0 29.0 0.00 0.00 0.00 13 999.8
20260903005504 77 199 9.0 24.0 0.00 0.00 0.00 14 999.8
20260903005005 77 201 9.0 17.0 0.00 0.00 0.00 15 999.8
20260903004504 77 227 10.0 17.0 0.00 0.00 0.00 15 999.8
20260903003504 77 211 10.0 20.0 0.00 0.00 0.00 14 999.7
20260903003005 77 215 12.0 20.0 0.00 0.00 0.00 13 999.7
20260903002005 78 207 10.0 20.0 0.00 0.00 0.00 14 999.4
20260903001004 78 218 11.0 18.0 0.00 0.00 0.00 13 999.4
20260902235004 77 216 13.0 23.0 0.00 0.00 0.00 14 999.4
20260902234505 78 218 12.0 23.0 0.00 0.00 0.00 13 999.3
20260902234004 78 219 14.0 23.0 0.00 0.00 0.00 13 999.3
20260902233503 79 222 14.0 21.0 0.00 0.00 0.00 13 999.2
20260902233004 78 231 14.0 21.0 0.00 0.00 0.00 13 999.1
20260902232504 79 228 13.0 20.0 0.00 0.00 0.00 13 999.1
20260902232004 79 233 12.0 20.0 0.00 0.00 0.00 13 999.0
20260902231504 79 234 12.0 18.0 0.00 0.00 0.00 14 999.0
20260902231004 80 233 11.0 23.0 0.00 0.00 0.00 14 999.0
20260902230004 80 234 13.0 23.0 0.00 0.00 0.00 13 999.0
20260902225504 80 230 14.0 21.0 0.00 0.00 0.00 14 998.9
20260902225004 80 229 12.0 24.0 0.00 0.00 0.00 13 998.8
20260902224504 81 228 17.0 24.0 0.00 0.00 0.00 13 998.7
20260902223504 83 237 15.0 23.0 0.00 0.00 0.00 13 998.6
20260902223006 82 222 13.0 20.0 0.00 0.00 0.00 14 998.5
20260902222006 80 222 8.0 21.0 0.00 0.00 0.00 18 998.6
20260902221505 80 236 10.0 20.0 0.00 0.00 0.00 17 998.6
20260902221006 79 226 7.0 14.0 0.00 0.00 0.00 18 998.5